Back to catalog

THOR ABLESTAR DEB

AliveLEO
NORAD 463·DEBRIS·🇺🇸 United States

Launched Jun 29, 1961 from Cape Canaveral Space Force Station

Loading…

Next Passes (next 24 hours)

TLE

FreshSource: Space-Track

Epoch: Sep 9, 2026, 21:31 UTC

1 00463U 61015EZ  26252.89698149  .00001470  00000-0  33872-3 0  9995
2 00463  66.7653 177.7822 0046575 199.5882 160.3444 14.57639409381474

Track THOR ABLESTAR DEB in real time with AllMySat

Download on the App Store